PROGRESS-MS 14

Last updated on Fri Apr 30 2021 00:02:12 GMT+0000 (Coordinated Universal Time)

1 45595U 20026A 21118.92376454 .00037518 00000-0 68028-3 0 9992 2 45595 51.6432 226.3883 0002988 272.3591 87.7062 15.49233189 57185

Satellite not in orbit